• In Netherlands
  • List of Countries
  • For 7 days
  • Water Temperature
  • Satellite Maps
  • Weather Map
  • Weather Widgets
  • user-avatar
    Login

    Hourly Weather Kabul

    Today, 23 May, Tuesday

    Time Temperature Precipitation Wind Pressure Humidity
    00:00 +20°C° 0.1 mm 1 mps 609 mmHg 52%
    01:00 +19°C° 0.1 mm 1 mps 609 mmHg 53%
    02:00 +19°C° 0.1 mm 1 mps 609 mmHg 54%
    03:00 +19°C° 0 mm 1 mps 609 mmHg 53%
    04:00 +18°C° 0 mm 1 mps 609 mmHg 52%
    05:00 +18°C° 0 mm 1 mps 609 mmHg 51%
    06:00 +20°C° 0 mm 1 mps 609 mmHg 45%
    07:00 +22°C° 0 mm 1 mps 610 mmHg 38%
    08:00 +23°C° 0 mm 1 mps 611 mmHg 32%
    09:00 +25°C° 0 mm 1 mps 612 mmHg 29%
    10:00 +26°C° 0 mm 1 mps 612 mmHg 26%
    11:00 +27°C° 0 mm 1 mps 612 mmHg 23%
    12:00 +28°C° 0.1 mm 1 mps 612 mmHg 22%
    13:00 +29°C° 0.1 mm 2 mps 612 mmHg 20%
    14:00 +30°C° 0.1 mm 2 mps 612 mmHg 19%
    15:00 +30°C° 0.2 mm 2 mps 612 mmHg 19%
    16:00 +29°C° 0.2 mm 3 mps 612 mmHg 19%
    17:00 +29°C° 0.2 mm 3 mps 612 mmHg 20%
    18:00 +27°C° 0.2 mm 3 mps 611 mmHg 24%
    19:00 +26°C° 0.2 mm 2 mps 611 mmHg 29%
    20:00 +24°C° 0.2 mm 1 mps 611 mmHg 34%
    21:00 +23°C° 0 mm 1 mps 611 mmHg 35%
    22:00 +22°C° 0 mm 1 mps 611 mmHg 36%
    23:00 +22°C° 0 mm 1 mps 611 mmHg 36%

    Tomorrow, 24 May, Wednesday

    Time Temperature Precipitation Wind Pressure Humidity
    00:00 +21°C° 0 mm 1 mps 610 mmHg 37%
    01:00 +20°C° 0 mm 1 mps 610 mmHg 38%
    02:00 +20°C° 0 mm 1 mps 609 mmHg 39%
    03:00 +19°C° 0 mm 1 mps 609 mmHg 40%
    04:00 +19°C° 0 mm 1 mps 609 mmHg 40%
    05:00 +18°C° 0 mm 1 mps 609 mmHg 40%
    06:00 +20°C° 0 mm 1 mps 610 mmHg 36%
    07:00 +22°C° 0 mm 1 mps 611 mmHg 31%
    08:00 +23°C° 0 mm 1 mps 612 mmHg 26%
    09:00 +25°C° 0 mm 1 mps 612 mmHg 23%
    10:00 +26°C° 0 mm 1 mps 612 mmHg 20%
    11:00 +27°C° 0 mm 1 mps 612 mmHg 17%
    12:00 +28°C° 0 mm 1 mps 612 mmHg 15%
    13:00 +29°C° 0 mm 2 mps 612 mmHg 13%
    14:00 +30°C° 0 mm 2 mps 612 mmHg 12%
    15:00 +30°C° 0 mm 2 mps 612 mmHg 11%
    16:00 +30°C° 0 mm 2 mps 612 mmHg 11%
    17:00 +30°C° 0 mm 3 mps 612 mmHg 11%
    18:00 +28°C° 0 mm 2 mps 611 mmHg 14%
    19:00 +26°C° 0 mm 2 mps 610 mmHg 17%
    20:00 +24°C° 0 mm 1 mps 610 mmHg 20%
    21:00 +24°C° 0 mm 1 mps 610 mmHg 22%
    22:00 +23°C° 0 mm 1 mps 610 mmHg 23%
    23:00 +22°C° 0 mm 1 mps 610 mmHg 25%

    Day after tomorrow, 25 May, Thursday

    Time Temperature Precipitation Wind Pressure Humidity
    00:00 +21°C° 0 mm 1 mps 609 mmHg 25%
    01:00 +21°C° 0 mm 1 mps 609 mmHg 26%
    02:00 +20°C° 0 mm 1 mps 609 mmHg 26%
    03:00 +20°C° 0 mm 1 mps 608 mmHg 26%
    04:00 +19°C° 0 mm 1 mps 608 mmHg 26%
    05:00 +19°C° 0 mm 1 mps 608 mmHg 26%
    06:00 +21°C° 0 mm 1 mps 609 mmHg 23%
    07:00 +23°C° 0 mm 1 mps 610 mmHg 20%
    08:00 +25°C° 0 mm 1 mps 611 mmHg 17%
    09:00 +26°C° 0 mm 1 mps 611 mmHg 16%
    10:00 +28°C° 0 mm 1 mps 612 mmHg 14%
    11:00 +29°C° 0 mm 1 mps 612 mmHg 13%
    12:00 +30°C° 0 mm 2 mps 612 mmHg 12%
    13:00 +31°C° 0 mm 2 mps 612 mmHg 11%
    14:00 +32°C° 0 mm 2 mps 612 mmHg 11%
    15:00 +33°C° 0 mm 3 mps 612 mmHg 11%
    16:00 +33°C° 0 mm 3 mps 611 mmHg 11%
    17:00 +33°C° 0 mm 3 mps 611 mmHg 11%
    18:00 +30°C° 0 mm 3 mps 611 mmHg 14%
    19:00 +28°C° 0 mm 3 mps 610 mmHg 17%
    20:00 +26°C° 0 mm 2 mps 610 mmHg 20%
    21:00 +25°C° 0 mm 2 mps 610 mmHg 21%
    22:00 +24°C° 0 mm 2 mps 610 mmHg 23%
    23:00 +23°C° 0 mm 2 mps 610 mmHg 24%

    26 May, Friday

    Time Temperature Precipitation Wind Pressure Humidity
    00:00 +21°C° 0 mm 2 mps 610 mmHg 25%
    01:00 +21°C° 0 mm 2 mps 610 mmHg 26%
    02:00 +20°C° 0 mm 2 mps 609 mmHg 27%
    03:00 +20°C° 0 mm 2 mps 609 mmHg 27%
    04:00 +19°C° 0 mm 2 mps 609 mmHg 27%
    05:00 +19°C° 0 mm 2 mps 609 mmHg 27%
    06:00 +21°C° 0 mm 2 mps 610 mmHg 25%
    07:00 +23°C° 0 mm 2 mps 611 mmHg 22%
    08:00 +25°C° 0 mm 2 mps 612 mmHg 19%
    09:00 +27°C° 0 mm 3 mps 613 mmHg 16%
    10:00 +28°C° 0 mm 3 mps 613 mmHg 13%
    11:00 +30°C° 0 mm 3 mps 613 mmHg 11%
    12:00 +30°C° 0 mm 3 mps 613 mmHg 10%
    13:00 +32°C° 0 mm 4 mps 613 mmHg 9%
    14:00 +33°C° 0 mm 4 mps 613 mmHg 8%
    15:00 +33°C° 0 mm 5 mps 613 mmHg 8%
    16:00 +32°C° 0 mm 5 mps 613 mmHg 8%
    17:00 +32°C° 0 mm 6 mps 612 mmHg 9%
    18:00 +29°C° 0 mm 5 mps 612 mmHg 11%
    19:00 +27°C° 0 mm 4 mps 611 mmHg 13%
    20:00 +25°C° 0 mm 3 mps 611 mmHg 16%
    21:00 +24°C° 0 mm 3 mps 611 mmHg 17%
    22:00 +22°C° 0 mm 3 mps 611 mmHg 19%
    23:00 +21°C° 0 mm 3 mps 611 mmHg 21%

    27 May, Saturday

    Time Temperature Precipitation Wind Pressure Humidity
    00:00 +21°C° 0 mm 3 mps 611 mmHg 23%
    01:00 +20°C° 0 mm 3 mps 610 mmHg 24%
    02:00 +20°C° 0 mm 3 mps 610 mmHg 25%
    03:00 +19°C° 0 mm 3 mps 610 mmHg 26%
    04:00 +19°C° 0 mm 3 mps 610 mmHg 27%
    05:00 +18°C° 0 mm 3 mps 609 mmHg 28%
    06:00 +20°C° 0 mm 3 mps 610 mmHg 25%
    07:00 +22°C° 0 mm 3 mps 611 mmHg 22%
    08:00 +25°C° 0 mm 3 mps 612 mmHg 19%
    09:00 +26°C° 0 mm 3 mps 612 mmHg 16%
    10:00 +28°C° 0 mm 4 mps 613 mmHg 14%
    11:00 +29°C° 0 mm 4 mps 613 mmHg 12%
    12:00 +30°C° 0 mm 4 mps 613 mmHg 11%
    13:00 +32°C° 0 mm 5 mps 613 mmHg 10%
    14:00 +33°C° 0 mm 5 mps 613 mmHg 9%
    15:00 +32°C° 0 mm 5 mps 612 mmHg 9%
    16:00 +32°C° 0 mm 6 mps 612 mmHg 9%
    17:00 +32°C° 0 mm 6 mps 612 mmHg 9%
    18:00 +29°C° 0 mm 5 mps 611 mmHg 12%
    19:00 +27°C° 0 mm 4 mps 611 mmHg 14%
    20:00 +25°C° 0 mm 3 mps 610 mmHg 16%
    21:00 +24°C° 0 mm 3 mps 610 mmHg 17%
    22:00 +22°C° 0 mm 3 mps 610 mmHg 19%
    23:00 +21°C° 0 mm 2 mps 610 mmHg 20%

    28 May, Sunday

    Time Temperature Precipitation Wind Pressure Humidity
    00:00 +21°C° 0 mm 2 mps 610 mmHg 21%
    01:00 +20°C° 0 mm 3 mps 609 mmHg 22%
    02:00 +19°C° 0 mm 3 mps 608 mmHg 23%
    03:00 +19°C° 0 mm 3 mps 608 mmHg 23%
    04:00 +19°C° 0 mm 3 mps 608 mmHg 23%
    05:00 +18°C° 0 mm 3 mps 608 mmHg 24%
    06:00 +20°C° 0 mm 3 mps 609 mmHg 21%
    07:00 +23°C° 0 mm 2 mps 610 mmHg 18%
    08:00 +25°C° 0 mm 2 mps 611 mmHg 15%
    09:00 +27°C° 0 mm 2 mps 611 mmHg 13%
    10:00 +28°C° 0 mm 2 mps 612 mmHg 10%
    11:00 +30°C° 0 mm 2 mps 612 mmHg 8%
    12:00 +31°C° 0 mm 2 mps 612 mmHg 7%
    13:00 +32°C° 0 mm 2 mps 612 mmHg 7%
    14:00 +34°C° 0 mm 3 mps 612 mmHg 6%
    15:00 +34°C° 0 mm 3 mps 611 mmHg 6%
    16:00 +34°C° 0 mm 3 mps 611 mmHg 6%
    17:00 +34°C° 0 mm 4 mps 611 mmHg 6%
    18:00 +30°C° 0 mm 3 mps 610 mmHg 8%
    19:00 +28°C° 0 mm 3 mps 609 mmHg 10%
    20:00 +26°C° 0 mm 2 mps 609 mmHg 12%
    21:00 +25°C° 0 mm 2 mps 609 mmHg 13%
    22:00 +24°C° 0 mm 2 mps 609 mmHg 14%
    23:00 +23°C° 0 mm 2 mps 609 mmHg 15%
    Show more